Weather History for Scappoose, OR

Change the Weather History Date:

Saturday, September 7, 2013

  Actual Average Record
Temperature  
Mean Temperature 67 °F -  
Max Temperature 81 °F - 95 °F (2011)
Min Temperature 54 °F - -99 °F (2012)
Degree Days  
Heating Degree Days 0    
Month to date heating degree days 0  
Since 1 July heating degree days 24  
Cooling Degree Days 3    
Month to date cooling degree days 21  
Year to date cooling degree days 345  
Growing Degree Days 17 (Base 50)    
Moisture  
Dew Point 56 °F    
Average Humidity 73    
Maximum Humidity 100    
Minimum Humidity 45    
Precipitation  
Precipitation 0.00 in - 0.41 in (2010)
Month to date precipitation 1.96  
Year to date precipitation 16.50  
Sea Level Pressure  
Sea Level Pressure 30.05 in    
Wind  
Wind Speed 4 mph (NNW)    
Max Wind Speed 14 mph    
Max Gust Speed 38 mph    
Visibility 6 miles    
Events Fog    
T = Trace of Precipitation, MM = Missing Value Source: NWS Daily Summary

Daily Weather History Graph

Daily Weather History Graph

Search for Another Location

Airport:

Trip Planner

Search our weather history database for the weather conditions in past years. The results will help you decide how hot, cold, wet, or windy it might be!

Date:

Astronomy

Sep. 07, 2013 Rise Set
Actual Time 6:40 AM PDT 7:37 PM PDT
Civil Twilight 6:09 AM PDT 8:07 PM PDT
Nautical Twilight 5:33 AM PDT 8:43 PM PDT
Astronomical Twilight 4:55 AM PDT 9:21 PM PDT
Moon 9:10 AM PDT (9/7) 8:27 PM PDT (9/7)
Length of Visible Light 13h 57m
Length of Day
12h 57m
Waxing Crescent, 6% of the Moon is Illuminated
Sep 7
Waxing Crescent
Sep 12
First Quarter
Sep 19
Full
Sep 26
Last Quarter
Oct 4
New

Hourly Weather History & Observations

Time (PDT) Temp. Heat Index Dew Point Humidity Pressure Visibility Wind Dir Wind Speed Gust Speed Precip Events Conditions
12:53 AM 60.1 °F - 57.9 °F 93% 30.10 in 10.0 mi Calm Calm - N/A   Overcast
1:53 AM 60.1 °F - 57.9 °F 93% 30.09 in 10.0 mi Calm Calm - N/A   Overcast
2:16 AM 60.8 °F - 57.2 °F 88% 30.10 in 10.0 mi Calm Calm - N/A   Scattered Clouds
2:53 AM 59.0 °F - 57.0 °F 93% 30.09 in 10.0 mi Calm Calm - N/A   Scattered Clouds
3:03 AM 59.0 °F - 57.2 °F 94% 30.09 in 5.0 mi Calm Calm - N/A   Mostly Cloudy
3:34 AM 57.2 °F - 55.4 °F 94% 30.07 in 2.5 mi Calm Calm - N/A   Scattered Clouds
3:42 AM 57.2 °F - 55.4 °F 94% 30.07 in 1.5 mi Calm Calm - N/A   Partly Cloudy
3:46 AM 57.2 °F - 55.4 °F 94% 30.07 in 3.0 mi Calm Calm - N/A   Clear
3:53 AM 57.0 °F - 55.9 °F 96% 30.07 in 3.0 mi Calm Calm - N/A   Partly Cloudy
4:01 AM 57.2 °F - 55.4 °F 94% 30.07 in 1.5 mi Calm Calm - N/A   Partly Cloudy
4:05 AM 57.2 °F - 55.4 °F 94% 30.07 in 0.8 mi Calm Calm - N/A   Mist
4:46 AM 55.4 °F - 53.6 °F 94% 30.07 in 1.2 mi Calm Calm - N/A   Scattered Clouds
4:53 AM 55.0 °F - 54.0 °F 96% 30.07 in 1.2 mi Calm Calm - N/A   Partly Cloudy
4:55 AM 53.6 °F - 53.6 °F 100% 30.07 in 0.8 mi Calm Calm - N/A   Mist
5:22 AM 55.4 °F - 53.6 °F 94% 30.07 in 1.0 mi Calm Calm - N/A   Clear
5:31 AM 55.4 °F - 53.6 °F 94% 30.06 in 1.0 mi Calm Calm - N/A   Mist
5:34 AM 55.4 °F - 53.6 °F 94% 30.06 in 0.8 mi Calm Calm - N/A   Clear
5:49 AM 55.4 °F - 53.6 °F 94% 30.06 in 0.5 mi Calm Calm - N/A Fog Fog
5:53 AM 55.0 °F - 54.0 °F 96% 30.06 in 0.5 mi Calm Calm - N/A Fog Fog
6:22 AM 55.4 °F - 53.6 °F 94% 30.06 in 1.0 mi Calm Calm - N/A   Clear
6:29 AM 55.4 °F - 53.6 °F 94% 30.06 in 3.0 mi Calm Calm - N/A   Scattered Clouds
6:42 AM 55.4 °F - 53.6 °F 94% 30.06 in 2.5 mi Calm Calm - N/A   Mostly Cloudy
6:51 AM 55.4 °F - 53.6 °F 94% 30.06 in 1.2 mi Calm Calm - N/A   Overcast
6:53 AM 54.0 °F - 53.1 °F 97% 30.06 in 1.2 mi Calm Calm - N/A   Overcast
7:02 AM 55.4 °F - 53.6 °F 94% 30.07 in 3.0 mi WNW 3.5 mph - N/A   Overcast
7:17 AM 55.4 °F - 55.4 °F 100% 30.06 in 10.0 mi Calm Calm - N/A   Overcast
7:25 AM 57.2 °F - 55.4 °F 94% 30.06 in 10.0 mi Calm Calm - N/A   Overcast
7:53 AM 57.9 °F - 57.0 °F 97% 30.07 in 10.0 mi NW 3.5 mph - N/A   Overcast
8:53 AM 61.0 °F - 57.9 °F 90% 30.06 in 10.0 mi Calm Calm - N/A   Overcast
9:12 AM 62.6 °F - 59.0 °F 88% 30.06 in 10.0 mi Calm Calm - N/A   Overcast
9:53 AM 64.0 °F - 59.0 °F 84% 30.06 in 10.0 mi Calm Calm - N/A   Overcast
10:53 AM 68.0 °F - 59.0 °F 73% 30.05 in 10.0 mi Calm Calm - N/A   Partly Cloudy
11:53 AM 72.0 °F - 57.9 °F 61% 30.03 in 10.0 mi Variable 4.6 mph - N/A   Clear
12:53 PM 73.9 °F - 57.9 °F 57% 30.01 in 10.0 mi Variable 3.5 mph - N/A   Clear
1:53 PM 77.0 °F - 57.0 °F 50% 30.00 in 10.0 mi Variable 4.6 mph - N/A   Clear
2:53 PM 79.0 °F - 55.0 °F 44% 29.98 in 10.0 mi North 5.8 mph - N/A   Clear
3:53 PM 81.0 °F 81.0 °F 57.0 °F 44% 29.97 in 10.0 mi North 8.1 mph - N/A   Clear
4:53 PM 80.1 °F 80.6 °F 57.9 °F 47% 29.97 in 10.0 mi North 8.1 mph - N/A   Clear
5:53 PM 78.1 °F - 59.0 °F 52% 29.96 in 10.0 mi North 11.5 mph - N/A   Clear
6:53 PM 75.9 °F - 59.0 °F 56% 29.96 in 10.0 mi North 3.5 mph - N/A   Unknown
7:53 PM 72.0 °F - 59.0 °F 64% 29.97 in 10.0 mi NNW 5.8 mph - N/A   Clear
8:53 PM 70.0 °F - 59.0 °F 68% 29.99 in 10.0 mi NNW 9.2 mph - N/A   Clear
9:53 PM 69.1 °F - 57.9 °F 68% 29.99 in 10.0 mi NW 6.9 mph - N/A   Clear
10:53 PM 68.0 °F - 57.9 °F 70% 30.00 in 10.0 mi NNW 9.2 mph - N/A   Unknown
11:53 PM 66.9 °F - 57.0 °F 70% 30.00 in 10.0 mi NNW 6.9 mph - N/A   Clear